User: anonymous   Login
Location: Unspecified
(0.0000°N, 0.0000°E)
Time: 17:38:53
(UTC+00:00)
Language:

AEROCUBE 6A - Orbit

View from above orbital plane
View from above orbital plane
View from above satellite
View from above satellite

Ground track
Ground track

The orbit data is extracted from the following two-line orbital elements,

1 40045U 14033AM  25108.88924394  .00008415  00000-0  82966-3 0  9999
2 40045  97.6899 278.4128 0042928 353.4175   6.6474 14.91562185583474
Epoch (UTC): 18 April 2025 21:20:30
Eccentricity: 0.0042928
inclination: 97.6899°
perigee height: 563 km
apogee height: 623 km
right ascension of ascending node: 278.4128°
argument of perigee: 353.4175°
revolutions per day: 14.91562185
mean anomaly at epoch: 6.6474°
orbit number at epoch: 58347

The dashed part of the orbit path shows where the satellite is in the earth's shadow,  

DLR